Clearfield, PA

6:31 AM EDT on August 19, 2017 (GMT -0400)
Clearfield-Lawrence

Weather History for KFIG - November, 2012

Change the Weather History Date:

Thursday, November 8, 2012

  Actual Average (KDUJ) Record (KDUJ)
Temperature  
Mean Temperature 36 °F -  
Max Temperature 46 °F 48 °F 68 °F (2011)
Min Temperature 27 °F 33 °F 16 °F (1976)
Degree Days  
Heating Degree Days 28    
Moisture  
Dew Point 21 °F    
Average Humidity 60    
Maximum Humidity 81    
Minimum Humidity 30    
Precipitation  
Precipitation 0.00 in - - ()
Sea Level Pressure  
Sea Level Pressure 30.08 in    
Wind  
Wind Speed 6 mph (NW)    
Max Wind Speed 15 mph    
Max Gust Speed 21 mph    
Visibility 10 miles    
Events      
Averages and records for this station are not official NWS values.
T = Trace of Precipitation, MM = Missing Value Source: NWS Daily Summary

Daily Weather History Graph

Daily Weather History Graph

Search for Another Location

Airport or City:

Trip Planner

Search our weather history database for the weather conditions in past years. The results will help you decide how hot, cold, wet, or windy it might be!

Date:

Astronomy

Nov. 08, 2012 Rise Set
Actual Time 6:53 AM EST 5:00 PM EST
Civil Twilight 6:24 AM EST 5:29 PM EST
Nautical Twilight 5:51 AM EST 6:02 PM EST
Astronomical Twilight 5:19 AM EST 6:35 PM EST
Moon 12:43 AM EST (11/8) 1:43 PM EST (11/8)
Length of Visible Light 11h 05m
Length of Day
10h 07m
Waning Crescent, 33% of the Moon is Illuminated
Nov 8
Waning Crescent
Nov 13
New
Nov 20
First Quarter
Nov 28
Full
Dec 6
Last Quarter

Hourly Weather History & Observations

Time (EST) Temp. Windchill Dew Point Humidity Pressure Visibility Wind Dir Wind Speed Gust Speed Precip Events Conditions
12:54 AM 28.0 °F 21.7 °F 19.0 °F 69% 30.02 in 10.0 mi NNW 5.8 mph - N/A   Clear
1:54 AM 28.9 °F 25.2 °F 19.9 °F 69% 30.01 in 10.0 mi WNW 3.5 mph - N/A   Clear
2:54 AM 28.0 °F 22.8 °F 21.0 °F 75% 30.02 in 10.0 mi WNW 4.6 mph - N/A   Clear
3:54 AM 28.0 °F 22.8 °F 21.9 °F 78% 30.03 in 10.0 mi WNW 4.6 mph - N/A   Clear
4:54 AM 27.0 °F 23.0 °F 21.9 °F 81% 30.04 in 10.0 mi NNW 3.5 mph - N/A   Clear
5:54 AM 27.0 °F - 21.9 °F 81% 30.05 in 10.0 mi Calm Calm - N/A   Clear
6:54 AM 27.0 °F 21.6 °F 21.9 °F 81% 30.06 in 10.0 mi WNW 4.6 mph - N/A   Clear
7:54 AM 27.0 °F 19.5 °F 21.9 °F 81% 30.09 in 10.0 mi WNW 6.9 mph - N/A   Clear
8:54 AM 30.9 °F 27.5 °F 21.9 °F 69% 30.10 in 10.0 mi WNW 3.5 mph - N/A   Clear
9:54 AM 35.1 °F 27.9 °F 21.0 °F 57% 30.10 in 10.0 mi NNW 9.2 mph - N/A   Clear
10:54 AM 37.9 °F 31.5 °F 21.0 °F 51% 30.11 in 10.0 mi NNW 9.2 mph - N/A   Clear
11:54 AM 41.0 °F 33.9 °F 19.0 °F 41% 30.08 in 10.0 mi NNW 12.7 mph - N/A   Clear
12:54 PM 44.1 °F 38.6 °F 16.0 °F 32% 30.06 in 10.0 mi NNW 10.4 mph 18.4 mph N/A   Clear
1:54 PM 45.0 °F 39.7 °F 15.1 °F 30% 30.04 in 10.0 mi NW 10.4 mph - N/A   Clear
2:54 PM 46.0 °F 40.6 °F 18.0 °F 33% 30.04 in 10.0 mi WNW 11.5 mph 20.7 mph N/A   Clear
3:54 PM 44.1 °F 37.1 °F 16.0 °F 32% 30.05 in 10.0 mi NW 15.0 mph 19.6 mph N/A   Clear
4:54 PM 43.0 °F 37.2 °F 19.9 °F 40% 30.07 in 10.0 mi NW 10.4 mph - N/A   Clear
5:54 PM 39.9 °F 33.9 °F 21.0 °F 47% 30.09 in 10.0 mi NW 9.2 mph - N/A   Clear
6:54 PM 39.0 °F 33.4 °F 21.0 °F 49% 30.11 in 10.0 mi NW 8.1 mph - N/A   Clear
7:54 PM 35.1 °F 29.3 °F 21.9 °F 59% 30.12 in 10.0 mi NNW 6.9 mph - N/A   Clear
8:54 PM 35.1 °F 27.9 °F 23.0 °F 61% 30.13 in 10.0 mi WNW 9.2 mph - N/A   Clear
9:54 PM 34.0 °F 27.2 °F 24.1 °F 67% 30.14 in 10.0 mi WNW 8.1 mph - N/A   Clear
10:54 PM 32.0 °F - 24.1 °F 73% 30.13 in 10.0 mi Calm Calm - N/A   Clear
11:47 PM 33.8 °F 29.6 °F 26.6 °F 75% 30.09 in 10.0 mi West 4.6 mph - N/A   Mostly Cloudy
11:54 PM 33.1 °F 28.7 °F 26.1 °F 75% 30.13 in 10.0 mi WSW 4.6 mph - N/A   Mostly Cloudy